Torna al catalogo

FALCON 9 R/B

AttivoHEO
NORAD 43464·ROCKET BODY·🇺🇸 United States

Lanciato May 11, 2018 da Cape Canaveral Space Force Station

Loading…

Prossimi Passaggi (prossime 24 ore)

TLE

AggiornatoSource: Space-Track

Epoca: Sep 14, 2026, 19:36 UTC

1 43464U 18044B   26257.81674873  .00003375  00000-0  14057-2 0  9991
2 43464  18.6931 194.1372 7097882 306.5430   7.3336  2.49951116 72166

Traccia FALCON 9 R/B in tempo reale con AllMySat

Download on the App Store